CST,Max TemperatureF,Mean TemperatureF,Min TemperatureF,Max Dew PointF,MeanDew PointF,Min DewpointF,Max Humidity, Mean Humidity, Min Humidity, Max Sea Level PressureIn, Mean Sea Level PressureIn, Min Sea Level PressureIn, Max VisibilityMiles, Mean VisibilityMiles, Min VisibilityMiles, Max Wind SpeedMPH, Mean Wind SpeedMPH, Max Gust SpeedMPH,PrecipitationIn, CloudCover, Events, WindDirDegrees
2014-2-1,64,50,37,58,48,37,100,91,68,30.13,30.09,30.06,10,6,0,13,3,,0.00,6,Fog,138
2014-2-2,62,58,55,61,58,55,100,96,90,30.11,30.05,29.98,10,3,0,12,5,,0.00,8,Fog-Rain,133
2014-2-3,68,56,45,67,51,42,100,89,77,30.15,30.07,29.97,10,7,1,16,9,21,0.21,8,Rain,341
2014-2-4,64,54,45,63,53,43,100,95,93,30.11,30.01,29.91,8,2,0,16,8,22,0.06,8,Fog-Rain,95
2014-2-5,68,54,39,67,46,29,96,77,49,30.29,30.12,29.95,10,9,2,23,11,28,0.18,5,Rain,322
2014-2-6,37,35,32,30,27,25,85,72,62,30.37,30.32,30.27,10,10,9,21,14,24,0.03,5,Rain,354
2014-2-7,54,42,30,37,32,27,89,69,47,30.37,30.29,30.22,10,9,5,13,9,,0.01,2,Rain,5
2014-2-8,60,50,39,44,39,35,97,75,42,30.26,30.20,30.14,10,8,1,10,6,,0.03,2,Rain,22
2014-2-9,63,49,35,49,42,34,100,90,58,30.22,30.15,30.09,10,4,0,9,2,,0.00,2,Fog,307
2014-2-10,61,53,45,57,50,43,100,94,83,30.15,30.10,30.06,10,4,0,9,2,,0.02,6,Fog-Rain,27
2014-2-11,48,46,43,47,42,40,97,92,85,30.14,30.08,30.02,10,8,4,20,11,22,0.34,8,Rain,3
2014-2-12,46,44,41,45,42,38,93,92,85,30.00,29.91,29.83,10,5,2,25,13,32,1.15,8,Rain-Thunderstorm,358
2014-2-13,55,46,37,41,36,33,93,79,45,30.08,30.00,29.93,10,10,4,20,13,28,0.00,4,,304
2014-2-14,60,48,36,53,41,35,100,80,39,30.05,29.98,29.87,10,7,0,24,4,33,0.00,2,Fog-Rain,235
2014-2-15,60,50,39,43,36,27,93,64,28,30.20,30.13,29.96,10,10,10,18,10,,0.00,0,,319
2014-2-16,61,49,37,52,43,35,97,84,41,30.23,30.18,30.14,10,8,2,12,3,,0.00,0,,166
2014-2-17,64,54,45,62,53,44,100,92,75,30.19,30.16,30.13,10,6,0,13,3,22,0.00,7,Fog,173
2014-2-18,70,62,55,63,60,55,100,93,76,30.20,30.15,30.10,10,5,0,9,5,,0.00,7,Fog,169
2014-2-19,69,64,60,64,62,60,100,95,81,30.14,30.07,30.02,10,2,0,13,7,,0.00,6,Fog,162
2014-2-20,68,64,61,65,62,60,100,94,84,30.03,29.98,29.92,10,3,0,13,8,22,0.02,7,Fog-Rain,168
2014-2-21,64,55,46,64,43,27,97,64,25,30.13,30.03,29.86,10,8,0,34,14,43,1.90,4,Fog-Rain-Thunderstorm,334
2014-2-22,66,52,39,48,36,27,86,58,23,30.19,30.11,30.05,10,10,10,8,5,,0.00,0,,356
2014-2-23,63,59,55,61,57,48,97,92,74,30.06,30.02,29.98,10,6,0,10,3,,0.68,8,Fog-Rain-Thunderstorm,45
2014-2-24,71,63,55,61,56,49,100,84,45,30.15,30.08,30.02,10,6,0,12,5,,0.00,4,Fog-Rain,354
2014-2-25,68,60,53,61,55,51,100,89,63,30.11,30.03,29.93,10,6,0,12,3,,0.07,4,Fog-Rain,154
2014-2-26,62,50,39,61,48,27,100,87,60,30.06,29.94,29.88,10,6,1,21,7,30,1.13,6,Rain,352
2014-2-27,55,44,32,32,23,14,89,52,21,30.13,30.06,30.00,10,10,10,17,11,20,0.00,0,,347
2014-2-28,59,44,28,48,35,24,96,68,33,30.16,30.10,30.05,10,10,10,14,6,17,0.00,1,,149